AQI (38)

Current Conditions for Foresthill, CA. Sunny, Dry   
Visibility: 10 miles
Foresthill Advisory text: No Warning

  Summary / Temperature 

Current Temperature
80.5°F
26.9°C
(24/hr Ago)
82.5°F
(Apparent temp)
82.1°F
Warm
Heat Index
80.5°F 

85.4°F/ 29.7°C
Noticeable discomfort

 Temp Rate:

 24/hr Difference:

 Avg Running Temp:

 Todays High:

 Todays Low:

 Y-days High:

 Y-days Low:

 Todays HeatIdx:

 Y-days HeatIdx:

 Evapotranspiration:

-0.4°F/hr 

-2°F

81.2°F

82.3°F 1:43pm

68.6°F 5:59am

88.1°F 1:24pm

70.5°F 11:54pm

82.1°F 1:43pm

87.8°F 1:26pm

0.218 in

115' Above Ground

 Temperature:

 6'AGL VRS 115'AGL:

 Avg Running Temp:

 Humidity:

 Todays High:

 Todays Low:

 Y-days High:

 Y-days Low:

82.0°F 

+1.5°F

82.5°F

39% 

84.0°F 5:56pm

69.0°F 4:50am

87.0°F 1:37pm

70.0°F 10:45pm

Temp & Humidity Graphs

  Wind 

Wind Speed

 Calm

Gusting to

 None

Calm

248°  

Calm

 Avg speed:

 Wind Run:

 Peak Gust:

Calm 

43.0 miles

  15.0 mph 5:58am

  Almanac  

Moon age: 19 days,8 hours,41 minutes,78%

Waning Gibbous
70%
Illuminated
20 days in cycle

 Moonrise:

 Moonset:

 Sunrise:

 Sunset:

 Solar Noon:

11:45pm

10:59am

5:44am

8:32pm

1:08pm

0min 50s less daylight tomorrow 

  Solar Radiation 

(Current Solar)
  153 W/m2 (125%)
(Todays High)
 960 W/m2@12:03pm
Feels like: 89.1°F in the sun

Rain

 Rain Today:

 Rain Rate (/hr):

 Rain last hour:

 Rain Yesterday:

 This Month:

 Season Total:

3 Days Since Last Rain Day

0.00 in

0.000 in

0.00 in

0.00 in

0.01 in

0.01 in

Updated Time

Updated: 7/6/15  7:29pm

(Updated  sec ago)

Humidity & Barometer

 Humidity:

 Wetbulb:

 Dew Point:

 Barometer:

42% 

65.6°F 

55.3°F 

29.928 inHg 

 Baro Trend:  Steady 
Northern Calif
Preparedness
Fire 
Level 

    UV Index  

(Current UV)
0.0  None
(Todays High) @ 1:02pm
10.2   Very High

Weather Underground 5 day Forecast

Tue Wed Thu Fri Sat
Mostly Cloudy  b?/b - T-storms   b?/b - T-storms  Mostly Cloudy Mostly Cloudy
Mostly Cloudy  ? - T-storms   ? - T-storms  Mostly Cloudy Mostly Cloudy
86 82 82 86 88
59 59 59 60 63

Foresthill Probe 2 Stats  
Foresthill Probe 2: is located on Thomas Street
at 3000 feet. The main Foresthill Weather site
is located on Melody ln at the 2860 foot elevation

Calm
79.2°F
26.2°C
Temp Rate:
-1.0°F
Calm
Gusting to
2.0 mph
(Humidity)
43%
Wind from WSW
241°  WSW
Updated: 06/07/15 - 19:27:53
 Todays High: 86.2°F 11:42
 Todays Low: 66.7°F 05:05
 Rain Today: 0.00 in
 Season Total: 0.01 in

Foresthill Wx: Monthly,Yearly, Highs and Lows 

Foresthill  
This Weather Data is coming from the main Foresthill
Weather site located on Melody ln at the 2860 foot
elevation
Not Foresthill Probe 2
Weather Data
Month
  High
Month
  Low
Year
High
Year
Low
Temp 91.8F
7/2/15
68.6F
7/6/15
94.6F
6/30/15
29.7F
1/1/15
Humidity 67%
7/4/15
27%
7/2/15
98%
4/25/15
11%
6/21/15
Heat Index 90.3F
7/4/15
70.9F
7/6/15
93.2F
6/30/15
32.1F
1/1/15
Wind Chill 91.8F
7/2/15
68.5F
7/6/15
94.6F
6/30/15
22.3F
4/7/15
Wind Gust 21 mph
7/2/15
0 mph
7/1/15
52 mph
2/6/15
0 mph
1/1/15
Barometer 29.97 in
7/6/15
29.75 in
7/4/15
30.51 in
1/4/15
29.66 in
6/14/15
ET 0.24 in
7/5/15
0.00 in
7/1/15
0.28 in
6/18/15
0.00 in
1/1/15
Dew Point 64.0F
7/4/15
48.9F
7/2/15
68.1F
6/11/15
10.0F
1/1/15
Infrared Satellite Regional Radar Satellite Imagery Sacramento,CA.  (click to enlarge)
NWS Weather Forecast - Outlook: Tonight and Tuesday
Tonight

Partly Cloudy
Partly
Cloudy
Lo 64 °F
NWS forecast: Partly cloudy, with a low around 64. West southwest wind around 6 mph becoming calm in the evening.
Tuesday

Slight Chc T-Storms. Chance for Measurable Precipitation 20%
Slight Chc
T-Storms
Hi 81 °F
NWS forecast: A 20 percent chance of showers and thunderstorms after 11am. Partly sunny, with a high near 81. Calm wind becoming west southwest 5 to 8 mph in the afternoon.
NWS Weather Forecast - Summary
Updated: Monday, July 6, 2015 - 3:11pm (PDT)
YR.NO 10 Day Weather forecast
Last update: 07/06/2015 @ 12:43
Next update: 07/07/2015 @ 01:00
Provided by: 22
      Temperature Precipitation Pressure Wind  
Today
07/06/2015
17:00 23:00 81°F   29.96 inHg Light breeze from southwest 6 mph
  23:00 05:00 66°F   30.01 inHg Light air from south 2 mph
    (Click to enlarge)
meteogram

    Forecast for next 9 days

      Temperature Precip Pressure Wind  
Tuesday
07/07/2015
05:00 11:00 57°F   29.96 inHg Light air from east 2 mph
  11:00 17:00 77°F   29.95 inHg Light breeze from southwest 4 mph
  17:00 23:00 79°F   29.86 inHg Light breeze from west-southwest 4 mph
  23:00 05:00 63°F   29.88 inHg Light air from south 2 mph
      Temperature Precip Pressure Wind  
Wednesday
07/08/2015
05:00 11:00 59°F   29.82 inHg Light air from east 2 mph
  11:00 17:00 73°F   29.84 inHg Light breeze from west-southwest 5 mph
  17:00 23:00 72°F   29.78 inHg Light breeze from southwest 5 mph
  23:00 05:00 63°F   29.80 inHg Light air from west-northwest 1 mph
      Temperature Precip Pressure Wind  
Thursday
07/09/2015
05:00 11:00 57°F   29.75 inHg Light air from west 1 mph
  11:00 17:00 72°F   29.79 inHg Light breeze from west-southwest 6 mph
  17:00 23:00 70°F   29.77 inHg Light breeze from southwest 6 mph
  23:00 05:00 59°F   29.83 inHg Light air from south 2 mph
      Temperature Precip Pressure Wind  
Friday
07/10/2015
05:00 11:00 55°F   29.86 inHg Light air from east-southeast 2 mph
  11:00 17:00 72°F   29.87 inHg Light breeze from southwest 6 mph
  17:00 23:00 75°F   29.83 inHg Light breeze from southwest 6 mph
  23:00 05:00 61°F   29.89 inHg Light air from south 2 mph
      Temperature Precip Pressure Wind  
Saturday
07/11/2015
05:00 11:00 54°F   29.87 inHg Light air from east-northeast 2 mph
  11:00 17:00 77°F   29.91 inHg Light breeze from southwest 6 mph
  17:00 23:00 77°F   29.88 inHg Gentle breeze from southwest 8 mph
  23:00 05:00 63°F   29.96 inHg Light air from south 2 mph
      Temperature Precip Pressure Wind  
Sunday
07/12/2015
05:00 11:00 57°F   29.96 inHg Light air from southeast 1 mph
  11:00 17:00 72°F   30.02 inHg Light breeze from southwest 5 mph
  17:00 23:00 73°F   30.00 inHg Light breeze from west-southwest 6 mph
  23:00 05:00 61°F   30.03 inHg Light air from northeast 2 mph
      Temperature Precip Pressure Wind  
Monday
07/13/2015
05:00 11:00 54°F   30.00 inHg Light air from east-northeast 1 mph
  11:00 17:00 77°F   29.99 inHg Light breeze from southwest 6 mph
  17:00 23:00 79°F   29.95 inHg Light breeze from southwest 7 mph
  23:00 05:00 63°F   30.01 inHg Light air from south-southeast 3 mph
      Temperature Precip Pressure Wind  
Tuesday
07/14/2015
05:00 11:00 54°F   29.96 inHg Light air from east-northeast 2 mph
  11:00 17:00 77°F   29.96 inHg Light breeze from west-southwest 5 mph
  17:00 23:00 81°F   29.90 inHg Light breeze from southwest 7 mph
  23:00 05:00 64°F   29.94 inHg Light air from southeast 3 mph
      Temperature Precip Pressure Wind  
Wednesday
07/15/2015
05:00 11:00 54°F   29.89 inHg Light air from east-northeast 3 mph
  11:00 17:00 81°F   29.88 inHg Light breeze from west-southwest 5 mph
  17:00 23:00 82°F   29.81 inHg Light breeze from southwest 6 mph
  23:00 05:00 66°F   29.81 inHg Light air from east 2 mph

Weather History For Monday, July 6, 2015


On this Day - In Weather History ...
Data courtesy of weatherforyou.com
powered by Cumulus v1.9.3 (1059)
Ambient Weather VWS v14.00
Top Contact Website Map Copyright © 2007 - 2015 Foresthillweather.com Never base important decisions on this or any weather information obtained from the Internet